Weather History for Newport Airport, OR

Change the Weather History Date:

Friday, March 7, 2014

  Actual Average Record
Temperature  
Mean Temperature 48 °F -  
Max Temperature 55 °F 49 °F 59 °F (2004)
Min Temperature 42 °F 40 °F 27 °F (1999)
Degree Days  
Heating Degree Days 16    
Moisture  
Dew Point 48 °F    
Average Humidity 91    
Maximum Humidity 100    
Minimum Humidity 72    
Precipitation  
Precipitation 0.09 in - - ()
Sea Level Pressure  
Sea Level Pressure 30.22 in    
Wind  
Wind Speed 8 mph (SSW)    
Max Wind Speed 15 mph    
Max Gust Speed 18 mph    
Visibility 6 miles    
Events Rain    
Averages and records for this station are not official NWS values.
T = Trace of Precipitation, MM = Missing Value Source: NWS Daily Summary

Daily Weather History Graph

Daily Weather History Graph

Search for Another Location

Airport:

Trip Planner

Search our weather history database for the weather conditions in past years. The results will help you decide how hot, cold, wet, or windy it might be!

Date:

Astronomy

Mar. 07, 2014 Rise Set
Actual Time 6:42 AM PST 6:12 PM PST
Civil Twilight 6:13 AM PST 6:41 PM PST
Nautical Twilight 5:40 AM PST 7:15 PM PST
Astronomical Twilight 5:06 AM PST 7:49 PM PST
Moon 10:25 AM PST (3/7) 12:36 AM PST (3/7)
Length of Visible Light 12h 27m
Length of Day
11h 29m
Waxing Crescent, 43% of the Moon is Illuminated
Mar 7
Waxing Crescent
Mar 8
First Quarter
Mar 16
Full
Mar 23
Last Quarter
Mar 30
New

Hourly Weather History & Observations

Time (PST) Temp. Windchill Dew Point Humidity Pressure Visibility Wind Dir Wind Speed Gust Speed Precip Events Conditions
12:15 AM 50.0 °F - 50.0 °F 100% 30.18 in 3.0 mi SSW 11.5 mph 17.3 mph N/A   Overcast
12:35 AM 50.0 °F - 50.0 °F 100% 30.17 in 4.0 mi SSW 10.4 mph - N/A   Overcast
12:55 AM 50.0 °F - 50.0 °F 100% 30.17 in 3.0 mi SSW 12.7 mph - N/A Rain Rain
1:15 AM 50.0 °F - 50.0 °F 100% 30.19 in 2.5 mi South 12.7 mph - N/A Rain Light Rain
1:35 AM 50.0 °F - 50.0 °F 100% 30.20 in 2.5 mi SSW 11.5 mph - N/A   Overcast
1:55 AM 50.0 °F - 50.0 °F 100% 30.20 in 2.5 mi South 11.5 mph - 0.01 in   Drizzle
2:15 AM 50.0 °F - 50.0 °F 100% 30.20 in 3.0 mi South 11.5 mph - 0.02 in Rain Rain
2:35 AM 50.0 °F - 50.0 °F 100% 30.19 in 3.0 mi South 12.7 mph 18.4 mph 0.04 in Rain Rain
2:55 AM 50.0 °F - 50.0 °F 100% 30.19 in 2.5 mi SSW 15.0 mph 18.4 mph 0.04 in Rain Rain
3:15 AM 50.0 °F - 50.0 °F 100% 30.19 in 2.0 mi SSW 9.2 mph 18.4 mph N/A   Light Drizzle
3:35 AM 50.0 °F - 50.0 °F 100% 30.19 in 2.5 mi South 11.5 mph - N/A Rain Light Rain
3:55 AM 50.0 °F - 50.0 °F 100% 30.19 in 3.0 mi South 9.2 mph - 0.02 in Rain Light Rain
4:15 AM 50.0 °F - 50.0 °F 100% 30.20 in 3.0 mi South 9.2 mph - 0.01 in Rain Heavy Rain
4:35 AM 50.0 °F - 50.0 °F 100% 30.20 in 3.0 mi South 11.5 mph - 0.01 in   Overcast
4:55 AM 50.0 °F - 50.0 °F 100% 30.20 in 3.0 mi SSW 10.4 mph - 0.02 in   Drizzle
5:15 AM 50.0 °F - 48.2 °F 94% 30.21 in 3.0 mi SSW 10.4 mph - N/A   Drizzle
5:35 AM 50.0 °F - 50.0 °F 100% 30.21 in 3.0 mi South 11.5 mph - N/A Rain Light Rain
5:55 AM 50.0 °F - 48.2 °F 94% 30.20 in 5.0 mi South 9.2 mph - N/A   Overcast
6:15 AM 50.0 °F - 50.0 °F 100% 30.20 in 5.0 mi South 6.9 mph - N/A   Overcast
6:35 AM 50.0 °F - 48.2 °F 94% 30.20 in 5.0 mi SSE 5.8 mph - N/A   Overcast
6:55 AM 50.0 °F - 48.2 °F 94% 30.27 in 7.0 mi SSE 5.8 mph - N/A   Mostly Cloudy
7:15 AM 50.0 °F - 48.2 °F 94% 30.33 in 10.0 mi SE 5.8 mph - N/A   Overcast
7:35 AM 50.0 °F - 48.2 °F 94% 30.33 in 10.0 mi ESE 4.6 mph - N/A   Mostly Cloudy
7:55 AM 50.0 °F - 48.2 °F 94% 30.29 in 10.0 mi ESE 4.6 mph - N/A   Scattered Clouds
8:15 AM 51.8 °F - 50.0 °F 94% 30.28 in 10.0 mi ESE 4.6 mph - N/A   Clear
8:35 AM 51.8 °F - 50.0 °F 94% 30.29 in 10.0 mi SSE 3.5 mph - N/A   Clear
8:55 AM 51.8 °F - 48.2 °F 88% 30.30 in 10.0 mi SSE 4.6 mph - N/A   Clear
9:15 AM 51.8 °F - 48.2 °F 88% 30.31 in 10.0 mi Calm Calm - N/A   Clear
9:35 AM 53.6 °F - 48.2 °F 82% 30.32 in 10.0 mi South 5.8 mph - N/A   Clear
9:55 AM 53.6 °F - 50.0 °F 88% 30.31 in 5.0 mi South 4.6 mph - N/A   Scattered Clouds
10:15 AM 53.6 °F - 50.0 °F 88% 30.31 in 5.0 mi SW 6.9 mph - N/A   Mostly Cloudy
10:35 AM 53.6 °F - 50.0 °F 88% 30.31 in 4.0 mi WSW 4.6 mph - N/A   Mostly Cloudy
10:55 AM 53.6 °F - 50.0 °F 88% 30.30 in 4.0 mi West 4.6 mph - N/A   Scattered Clouds
11:15 AM 53.6 °F - 50.0 °F 88% 30.30 in 5.0 mi Calm Calm - N/A   Scattered Clouds
11:35 AM 55.4 °F - 50.0 °F 82% 30.30 in 5.0 mi West 5.8 mph - N/A   Haze
11:55 AM 55.4 °F - 50.0 °F 82% 30.29 in 7.0 mi West 3.5 mph - N/A   Scattered Clouds
12:15 PM 55.4 °F - 50.0 °F 82% 30.29 in 7.0 mi WNW 4.6 mph - N/A   Scattered Clouds
12:35 PM 55.4 °F - 50.0 °F 82% 30.28 in 7.0 mi NW 3.5 mph - N/A   Clear
12:55 PM 55.4 °F - 50.0 °F 82% 30.28 in 7.0 mi WNW 5.8 mph - N/A   Clear
1:15 PM 55.4 °F - 50.0 °F 82% 30.27 in 10.0 mi West 5.8 mph - N/A   Clear
1:40 PM 55.4 °F - 46.4 °F 72% 30.25 in 10.0 mi West 5.8 mph - N/A   Clear
1:55 PM 55.4 °F - 46.4 °F 72% 30.24 in 10.0 mi WSW 4.6 mph - N/A   Clear
2:15 PM 55.4 °F - 46.4 °F 72% 30.23 in 10.0 mi West 4.6 mph - N/A   Clear
2:35 PM 55.4 °F - 46.4 °F 72% 30.23 in 10.0 mi West 5.8 mph - N/A   Clear
2:55 PM 55.4 °F - 46.4 °F 72% 30.22 in 10.0 mi West 4.6 mph - N/A   Clear
3:15 PM 55.4 °F - 46.4 °F 72% 30.22 in 7.0 mi West 4.6 mph - N/A   Clear
3:35 PM 55.4 °F - 46.4 °F 72% 30.22 in 10.0 mi WSW 4.6 mph - N/A   Clear
3:55 PM 53.6 °F - 46.4 °F 77% 30.22 in 10.0 mi West 4.6 mph - N/A   Clear
4:15 PM 55.4 °F - 46.4 °F 72% 30.22 in 10.0 mi West 6.9 mph - N/A   Clear
4:35 PM 55.4 °F - 46.4 °F 72% 30.22 in 7.0 mi Calm Calm - N/A   Clear
4:55 PM 55.4 °F - 46.4 °F 72% 30.21 in 7.0 mi Calm Calm - N/A   Clear
5:15 PM 53.6 °F - 46.4 °F 77% 30.21 in 7.0 mi Calm Calm - N/A   Clear
5:35 PM 51.8 °F - 46.4 °F 82% 30.21 in 1.8 mi Calm Calm - N/A   Mist
5:55 PM 51.8 °F - 46.4 °F 82% 30.21 in 1.8 mi Calm Calm - N/A   Mist
6:15 PM 50.0 °F - 46.4 °F 87% 30.21 in 2.5 mi Calm Calm - N/A   Clear
6:35 PM 48.2 °F - 46.4 °F 93% 30.20 in 5.0 mi Calm Calm - N/A   Clear
6:55 PM 46.4 °F - 44.6 °F 93% 30.20 in 7.0 mi Calm Calm - N/A   Clear
7:15 PM 46.4 °F - 44.6 °F 93% 30.21 in 5.0 mi Calm Calm - N/A   Clear
7:35 PM 44.6 °F - 44.6 °F 100% 30.21 in 4.0 mi Calm Calm - N/A   Clear
7:55 PM 44.6 °F - 42.8 °F 93% 30.21 in 4.0 mi Calm Calm - N/A   Clear
8:15 PM 44.6 °F 42.2 °F 44.6 °F 100% 30.20 in 3.0 mi East 4.6 mph - N/A   Clear
8:35 PM 44.6 °F 43.1 °F 44.6 °F 100% 30.19 in 4.0 mi East 3.5 mph - N/A   Clear
8:55 PM 44.6 °F - 44.6 °F 100% 30.19 in 5.0 mi Calm Calm - N/A   Clear
9:15 PM 44.6 °F 42.2 °F 42.8 °F 93% 30.19 in 5.0 mi East 4.6 mph - N/A   Clear
9:35 PM 44.6 °F 41.4 °F 44.6 °F 100% 30.18 in 10.0 mi East 5.8 mph - N/A   Clear
9:55 PM 44.6 °F 42.2 °F 44.6 °F 100% 30.17 in 10.0 mi East 4.6 mph - N/A   Clear
10:15 PM 44.6 °F 43.1 °F 44.6 °F 100% 30.17 in 10.0 mi East 3.5 mph - N/A   Clear
10:35 PM 42.8 °F 41.1 °F 42.8 °F 100% 30.15 in 10.0 mi East 3.5 mph - N/A   Clear
10:55 PM 46.4 °F 43.5 °F 44.6 °F 93% 30.14 in 10.0 mi East 5.8 mph - N/A   Clear
11:15 PM 44.6 °F 40.7 °F 44.6 °F 100% 30.12 in 10.0 mi East 6.9 mph - N/A   Clear
11:35 PM 44.6 °F - 44.6 °F 100% 30.14 in 10.0 mi Calm Calm - N/A   Clear
11:55 PM 44.6 °F - 44.6 °F 100% 30.14 in 10.0 mi Calm Calm - N/A   Clear